KD6VLN-14 Weather Reports


Display with metric or nautical units.
time (UTC)temp
F
wind
direction
speed
MPH
gust
MPH
rain 1hr
in
rain 24hr
in
rain mn
in
humidity
%
barometer
mb
20260509222529 101 257 5.0 13.0 0.00 0.00 0.00 28
20260509222420 101 257 5.0 13.0 0.00 0.00 0.00 28
20260509222044 101 236 8.0 11.0 0.00 0.00 0.00 29
20260509221920 101 236 8.0 11.0 0.00 0.00 0.00 29
20260509221535 101 258 5.0 12.0 0.00 0.00 0.00 29
20260509221420 101 258 5.0 12.0 0.00 0.00 0.00 29
20260509221009 101 253 7.0 13.0 0.00 0.00 0.00 29
20260509220920 101 253 7.0 13.0 0.00 0.00 0.00 29
20260509220420 101 247 7.0 13.0 0.00 0.00 0.00 30
20260509220004 101 232 6.0 14.0 0.00 0.00 0.00 30
20260509215920 101 232 6.0 14.0 0.00 0.00 0.00 30
20260509215527 101 253 9.0 14.0 0.00 0.00 0.00 30
20260509215420 101 253 9.0 14.0 0.00 0.00 0.00 30
20260509215013 101 274 5.0 12.0 0.00 0.00 0.00 28
20260509214920 101 274 5.0 12.0 0.00 0.00 0.00 28
20260509214527 101 286 5.0 11.0 0.00 0.00 0.00 28
20260509214421 101 286 5.0 11.0 0.00 0.00 0.00 28
20260509214117 101 268 4.0 8.0 0.00 0.00 0.00 28
20260509214041 101 268 4.0 8.0 0.00 0.00 0.00 28
20260509213920 101 268 4.0 8.0 0.00 0.00 0.00 28
20260509213420 101 303 4.0 11.0 0.00 0.00 0.00 27
20260509213010 101 274 6.0 12.0 0.00 0.00 0.00 28
20260509212920 101 274 6.0 12.0 0.00 0.00 0.00 28
20260509212017 101 290 4.0 8.0 0.00 0.00 0.00 27
20260509211920 101 290 4.0 8.0 0.00 0.00 0.00 27
20260509211515 101 323 4.0 11.0 0.00 0.00 0.00 26
20260509211421 101 323 4.0 11.0 0.00 0.00 0.00 26
20260509211010 101 262 5.0 11.0 0.00 0.00 0.00 29
20260509210920 101 262 5.0 11.0 0.00 0.00 0.00 29
20260509210512 101 265 5.0 8.0 0.00 0.00 0.00 29
20260509210420 101 265 5.0 8.0 0.00 0.00 0.00 29
20260509210016 100 278 4.0 14.0 0.00 0.00 0.00 28
20260509205920 100 278 4.0 14.0 0.00 0.00 0.00 28
20260509205420 100 292 5.0 14.0 0.00 0.00 0.00 28
20260509204955 100 304 4.0 9.0 0.00 0.00 0.00 28
20260509204922 100 304 4.0 9.0 0.00 0.00 0.00 28
20260509204518 100 275 5.0 10.0 0.00 0.00 0.00 29
20260509204422 100 275 5.0 10.0 0.00 0.00 0.00 29
20260509203958 100 233 6.0 10.0 0.00 0.00 0.00 31
20260509203921 100 233 6.0 10.0 0.00 0.00 0.00 31
20260509203527 100 255 5.0 15.0 0.00 0.00 0.00 30
20260509203455 100 255 5.0 15.0 0.00 0.00 0.00 30
20260509203420 100 255 5.0 15.0 0.00 0.00 0.00 30
20260509203012 100 260 5.0 15.0 0.00 0.00 0.00 30
20260509202922 100 260 5.0 15.0 0.00 0.00 0.00 30
20260509202457 100 259 6.0 11.0 0.00 0.00 0.00 30
20260509202420 100 259 6.0 11.0 0.00 0.00 0.00 30
20260509202021 100 249 5.0 10.0 0.00 0.00 0.00 29
20260509201920 100 249 5.0 10.0 0.00 0.00 0.00 29
20260509201457 99 316 3.0 10.0 0.00 0.00 0.00 26
20260509201420 99 316 3.0 10.0 0.00 0.00 0.00 26
20260509200951 99 355 4.0 9.0 0.00 0.00 0.00 26
20260509200920 99 355 4.0 9.0 0.00 0.00 0.00 26
20260509200458 98 271 3.0 12.0 0.00 0.00 0.00 27
20260509200420 98 271 3.0 12.0 0.00 0.00 0.00 27
20260509195955 99 254 6.0 12.0 0.00 0.00 0.00 30
20260509195920 99 254 6.0 12.0 0.00 0.00 0.00 30
20260509195459 98 264 3.0 9.0 0.00 0.00 0.00 29
20260509195420 98 264 3.0 9.0 0.00 0.00 0.00 29
20260509195001 99 243 5.0 10.0 0.00 0.00 0.00 29
20260509194920 99 243 5.0 10.0 0.00 0.00 0.00 29
20260509194508 99 256 4.0 10.0 0.00 0.00 0.00 28
20260509194420 99 256 4.0 10.0 0.00 0.00 0.00 28
20260509194002 98 265 4.0 8.0 0.00 0.00 0.00 29
20260509193920 98 265 4.0 8.0 0.00 0.00 0.00 29
20260509193420 97 315 3.0 6.0 0.00 0.00 0.00 28
20260509193016 97 330 3.0 7.0 0.00 0.00 0.00 28
20260509192920 97 330 3.0 7.0 0.00 0.00 0.00 28
20260509192513 97 301 4.0 8.0 0.00 0.00 0.00 28
20260509192420 97 301 4.0 8.0 0.00 0.00 0.00 28
20260509191954 96 277 3.0 11.0 0.00 0.00 0.00 29
20260509191920 96 277 3.0 11.0 0.00 0.00 0.00 29
20260509191451 96 276 5.0 11.0 0.00 0.00 0.00 30
20260509191420 96 276 5.0 11.0 0.00 0.00 0.00 30
20260509190951 96 303 3.0 8.0 0.00 0.00 0.00 29
20260509190920 96 303 3.0 8.0 0.00 0.00 0.00 29
20260509190420 97 262 5.0 9.0 0.00 0.00 0.00 30
20260509185957 97 277 4.0 9.0 0.00 0.00 0.00 30
20260509185920 97 277 4.0 9.0 0.00 0.00 0.00 30
20260509185507 96 291 3.0 8.0 0.00 0.00 0.00 29
20260509185421 96 291 3.0 8.0 0.00 0.00 0.00 29
20260509185002 95 275 3.0 7.0 0.00 0.00 0.00 29
20260509184920 95 275 3.0 7.0 0.00 0.00 0.00 29
20260509184511 95 272 3.0 9.0 0.00 0.00 0.00 29
20260509184420 95 272 3.0 9.0 0.00 0.00 0.00 29
20260509184010 94 273 5.0 9.0 0.00 0.00 0.00 28
20260509183920 94 273 5.0 9.0 0.00 0.00 0.00 28
20260509183420 94 316 3.0 8.0 0.00 0.00 0.00 26
20260509182959 95 300 3.0 8.0 0.00 0.00 0.00 28
20260509182920 95 300 3.0 8.0 0.00 0.00 0.00 28
20260509182505 94 251 4.0 8.0 0.00 0.00 0.00 29
20260509182421 94 251 4.0 8.0 0.00 0.00 0.00 29
20260509181952 94 230 2.0 8.0 0.00 0.00 0.00 28
20260509181920 94 230 2.0 8.0 0.00 0.00 0.00 28
20260509181512 94 249 5.0 9.0 0.00 0.00 0.00 30
20260509181420 94 249 5.0 9.0 0.00 0.00 0.00 30
20260509181001 94 269 4.0 9.0 0.00 0.00 0.00 30
20260509180922 94 269 4.0 9.0 0.00 0.00 0.00 30
20260509180510 93 263 3.0 7.0 0.00 0.00 0.00 29
20260509180420 93 263 3.0 7.0 0.00 0.00 0.00 29
20260509180009 93 246 3.0 7.0 0.00 0.00 0.00 30
20260509175543 93 219 4.0 6.0 0.00 0.00 0.00 30
20260509175420 93 219 4.0 6.0 0.00 0.00 0.00 30
20260509175018 93 266 3.0 6.0 0.00 0.00 0.00 29
20260509174920 93 266 3.0 6.0 0.00 0.00 0.00 29
20260509174513 93 303 3.0 8.0 0.00 0.00 0.00 29
20260509174420 93 303 3.0 8.0 0.00 0.00 0.00 29
20260509173957 93 267 5.0 8.0 0.00 0.00 0.00 30
20260509173920 93 267 5.0 8.0 0.00 0.00 0.00 30
20260509173456 93 267 4.0 8.0 0.00 0.00 0.00 29
20260509173420 93 267 4.0 8.0 0.00 0.00 0.00 29
20260509173009 92 272 2.0 9.0 0.00 0.00 0.00 28
20260509172920 92 272 2.0 9.0 0.00 0.00 0.00 28
20260509172455 92 270 5.0 9.0 0.00 0.00 0.00 28
20260509172420 92 270 5.0 9.0 0.00 0.00 0.00 28
20260509171958 92 233 4.0 9.0 0.00 0.00 0.00 28
20260509171920 92 233 4.0 9.0 0.00 0.00 0.00 28
20260509171510 92 262 4.0 8.0 0.00 0.00 0.00 30
20260509171420 92 262 4.0 8.0 0.00 0.00 0.00 30
20260509170954 92 36 1.0 7.0 0.00 0.00 0.00 28
20260509170920 92 36 1.0 7.0 0.00 0.00 0.00 28
20260509170420 92 261 3.0 8.0 0.00 0.00 0.00 29
20260509165958 92 247 5.0 8.0 0.00 0.00 0.00 30
20260509165920 92 247 5.0 8.0 0.00 0.00 0.00 30
20260509165420 91 259 3.0 8.0 0.00 0.00 0.00 29
20260509164958 91 272 4.0 8.0 0.00 0.00 0.00 29
20260509164920 91 272 4.0 8.0 0.00 0.00 0.00 29
20260509164420 92 258 4.0 8.0 0.00 0.00 0.00 29
20260509164008 92 275 3.0 7.0 0.00 0.00 0.00 29
20260509163920 92 275 3.0 7.0 0.00 0.00 0.00 29
20260509163421 92 266 4.0 7.0 0.00 0.00 0.00 30
20260509163008 91 278 2.0 6.0 0.00 0.00 0.00 28
20260509162920 91 278 2.0 6.0 0.00 0.00 0.00 28
20260509162508 91 236 3.0 6.0 0.00 0.00 0.00 30
20260509162420 91 236 3.0 6.0 0.00 0.00 0.00 30
20260509161920 91 265 3.0 6.0 0.00 0.00 0.00 29
20260509161511 90 217 2.0 5.0 0.00 0.00 0.00 29
20260509161420 90 217 2.0 5.0 0.00 0.00 0.00 29
20260509160920 90 243 3.0 6.0 0.00 0.00 0.00 30
20260509160507 90 234 2.0 6.0 0.00 0.00 0.00 30
20260509160420 90 234 2.0 6.0 0.00 0.00 0.00 30
20260509155920 90 268 3.0 6.0 0.00 0.00 0.00 30
20260509155420 88 308 1.0 6.0 0.00 0.00 0.00 29
20260509154953 88 305 3.0 6.0 0.00 0.00 0.00 30
20260509154920 88 305 3.0 6.0 0.00 0.00 0.00 30
20260509154500 88 298 2.0 5.0 0.00 0.00 0.00 30
20260509154420 88 298 2.0 5.0 0.00 0.00 0.00 30
20260509153958 88 262 3.0 5.0 0.00 0.00 0.00 30
20260509153920 88 262 3.0 5.0 0.00 0.00 0.00 30
20260509153420 89 266 3.0 5.0 0.00 0.00 0.00 31
20260509152941 88 266 2.0 4.0 0.00 0.00 0.00 30
20260509152905 88 266 2.0 4.0 0.00 0.00 0.00 30
20260509152503 87 345 1.0 4.0 0.00 0.00 0.00 28
20260509152406 87 345 1.0 4.0 0.00 0.00 0.00 28
20260509151948 86 356 1.0 4.0 0.00 0.00 0.00 28
20260509151905 86 356 1.0 4.0 0.00 0.00 0.00 28
20260509151406 86 310 1.0 3.0 0.00 0.00 0.00 29
20260509150905 86 3 2.0 4.0 0.00 0.00 0.00 28
20260509150448 85 13 2.0 4.0 0.00 0.00 0.00 29
20260509150406 85 13 2.0 4.0 0.00 0.00 0.00 29
20260509145944 85 9 2.0 3.0 0.00 0.00 0.00 28
20260509145905 85 9 2.0 3.0 0.00 0.00 0.00 28
20260509145408 84 7 2.0 3.0 0.00 0.00 0.00 28
20260509144907 83 351 1.0 3.0 0.00 0.00 0.00 28
20260509144407 82 14 0.0 2.0 0.00 0.00 0.00 29
20260509143906 81 260 1.0 2.0 0.00 0.00 0.00 30
20260509143406 81 255 1.0 3.0 0.00 0.00 0.00 31
20260509142906 81 268 1.0 3.0 0.00 0.00 0.00 31
20260509142406 80 289 1.0 3.0 0.00 0.00 0.00 30
20260509141905 79 276 1.0 3.0 0.00 0.00 0.00 31
20260509141410 78 252 2.0 3.0 0.00 0.00 0.00 32
20260509140905 78 253 2.0 3.0 0.00 0.00 0.00 32
20260509140406 77 260 2.0 3.0 0.00 0.00 0.00 32
20260509135912 76 298 1.0 2.0 0.00 0.00 0.00 31
20260509135405 75 311 1.0 2.0 0.00 0.00 0.00 30
20260509134906 74 319 0.0 1.0 0.00 0.00 0.00 29
20260509134405 74 345 0.0 0.0 0.00 0.00 0.00 29
20260509133906 73 349 0.0 0.0 0.00 0.00 0.00 29
20260509133405 73 346 0.0 0.0 0.00 0.00 0.00 29
20260509132906 73 279 0.0 0.0 0.00 0.00 0.00 32
20260509132406 72 8 0.0 0.0 0.00 0.00 0.00 29
20260509131905 71 30 0.0 0.0 0.00 0.00 0.00 28
20260509131405 70 61 0.0 0.0 0.00 0.00 0.00 29
20260509130905 70 82 0.0 0.0 0.00 0.00 0.00 29
20260509130405 69 88 0.0 0.0 0.00 0.00 0.00 29
20260509125906 68 109 0.0 0.0 0.00 0.00 0.00 32
20260509125406 67 103 0.0 0.0 0.00 0.00 0.00 31
20260509124905 67 100 0.0 3.0 0.00 0.00 0.00 30
20260509124405 66 103 0.0 3.0 0.00 0.00 0.00 31
20260509123906 66 93 0.0 0.0 0.00 0.00 0.00 30
20260509123405 67 88 0.0 0.0 0.00 0.00 0.00 29
20260509122914 66 99 0.0 0.0 0.00 0.00 0.00 31
20260509122406 66 91 0.0 0.0 0.00 0.00 0.00 29
20260509121906 66 92 0.0 0.0 0.00 0.00 0.00 28
20260509121408 66 95 0.0 0.0 0.00 0.00 0.00 30
20260509120906 66 97 0.0 3.0 0.00 0.00 0.00 30
20260509120407 66 86 1.0 3.0 0.00 0.00 0.00 29
20260509115905 66 88 2.0 3.0 0.00 0.00 0.00 29
20260509115408 65 90 2.0 3.0 0.00 0.00 0.00 29
20260509114905 65 89 1.0 3.0 0.00 0.00 0.00 29
20260509114410 65 76 0.0 3.0 0.00 0.00 0.00 30
20260509113906 65 87 0.0 2.0 0.00 0.00 0.00 30
20260509113405 65 78 0.0 2.0 0.00 0.00 0.00 29
20260509112905 65 64 0.0 3.0 0.00 0.00 0.00 29
20260509112407 65 76 0.0 3.0 0.00 0.00 0.00 29
20260509111905 65 89 0.0 0.0 0.00 0.00 0.00 29
20260509111407 65 95 0.0 0.0 0.00 0.00 0.00 29
20260509110906 65 90 0.0 2.0 0.00 0.00 0.00 28
20260509110406 65 96 0.0 2.0 0.00 0.00 0.00 30
20260509105907 65 91 0.0 0.0 0.00 0.00 0.00 28
20260509105405 65 95 0.0 2.0 0.00 0.00 0.00 29
20260509104907 64 108 0.0 2.0 0.00 0.00 0.00 30
20260509104406 64 84 0.0 0.0 0.00 0.00 0.00 27
20260509103906 64 52 0.0 0.0 0.00 0.00 0.00 27
20260509103406 65 67 0.0 0.0 0.00 0.00 0.00 27
20260509102906 66 64 0.0 0.0 0.00 0.00 0.00 27
20260509102407 68 46 0.0 0.0 0.00 0.00 0.00 26
20260509101906 69 220 0.0 3.0 0.00 0.00 0.00 27
20260509101406 70 176 0.0 4.0 0.00 0.00 0.00 30
20260509100909 71 195 2.0 5.0 0.00 0.00 0.00 30
20260509100406 71 191 3.0 5.0 0.00 0.00 0.00 29
20260509095906 70 190 3.0 5.0 0.00 0.00 0.00 30
20260509095408 70 192 0.0 5.0 0.00 0.00 0.00 30
20260509094906 71 185 3.0 6.0 0.00 0.00 0.00 29
20260509094407 70 192 4.0 6.0 0.00 0.00 0.00 30
20260509093906 70 190 4.0 5.0 0.00 0.00 0.00 30
20260509093406 70 188 3.0 4.0 0.00 0.00 0.00 29
20260509092906 70 192 3.0 4.0 0.00 0.00 0.00 29
20260509091906 70 184 3.0 4.0 0.00 0.00 0.00 30
20260509091406 70 191 3.0 4.0 0.00 0.00 0.00 29
20260509090906 70 184 3.0 4.0 0.00 0.00 0.00 29
20260509090406 70 183 3.0 4.0 0.00 0.00 0.00 29
20260509085906 69 183 3.0 4.0 0.00 0.00 0.00 30
20260509085406 69 178 2.0 4.0 0.00 0.00 0.00 29
20260509084917 69 179 2.0 4.0 0.00 0.00 0.00 29
20260509084407 69 166 1.0 3.0 0.00 0.00 0.00 29
20260509083906 69 146 1.0 3.0 0.00 0.00 0.00 28
20260509083409 69 168 1.0 3.0 0.00 0.00 0.00 29
20260509082906 69 175 2.0 3.0 0.00 0.00 0.00 29
20260509082412 69 165 0.0 3.0 0.00 0.00 0.00 29
20260509081906 69 157 1.0 4.0 0.00 0.00 0.00 28
20260509081406 69 169 2.0 4.0 0.00 0.00 0.00 28
20260509080906 69 125 2.0 4.0 0.00 0.00 0.00 28
20260509080407 70 127 2.0 4.0 0.00 0.00 0.00 26
20260509075906 70 124 0.0 2.0 0.00 0.00 0.00 26
20260509074906 71 220 2.0 7.0 0.00 0.00 0.00 26
20260509074406 71 214 5.0 7.0 0.00 0.00 0.00 26
20260509073406 72 220 5.0 8.0 0.00 0.00 0.00 26
20260509072906 72 220 5.0 8.0 0.00 0.00 0.00 25
20260509072406 72 213 5.0 8.0 0.00 0.00 0.00 26
20260509071906 72 209 5.0 7.0 0.00 0.00 0.00 26
20260509071406 72 226 4.0 7.0 0.00 0.00 0.00 26
20260509070906 73 213 4.0 8.0 0.00 0.00 0.00 26
20260509070406 73 214 6.0 9.0 0.00 0.00 0.00 26
20260509065906 73 214 7.0 9.0 0.00 0.00 0.00 26
20260509065406 73 219 4.0 7.0 0.00 0.00 0.00 27
20260509064406 74 213 4.0 5.0 0.00 0.00 0.00 27
20260509063914 74 211 4.0 5.0 0.00 0.00 0.00 27
20260509063406 74 195 3.0 5.0 0.00 0.00 0.00 27
20260509062906 74 196 4.0 5.0 0.00 0.00 0.00 27
20260509062407 74 193 4.0 5.0 0.00 0.00 0.00 28
20260509061906 74 204 4.0 5.0 0.00 0.00 0.00 27
20260509061406 74 196 3.0 6.0 0.00 0.00 0.00 27
20260509060906 74 200 4.0 6.0 0.00 0.00 0.00 27
20260509060406 74 205 4.0 6.0 0.00 0.00 0.00 27
20260509055908 74 201 4.0 5.0 0.00 0.00 0.00 27
20260509055406 74 208 4.0 6.0 0.00 0.00 0.00 27
20260509054907 74 205 5.0 6.0 0.00 0.00 0.00 26
20260509054406 74 214 4.0 5.0 0.00 0.00 0.00 27
20260509053906 74 221 4.0 5.0 0.00 0.00 0.00 27
20260509053411 74 204 3.0 5.0 0.00 0.00 0.00 28
20260509052906 74 173 0.0 3.0 0.00 0.00 0.00 25
20260509052513 74 140 0.0 3.0 0.00 0.00 0.00 26
20260509052406 74 140 0.0 3.0 0.00 0.00 0.00 26
20260509051906 74 115 2.0 3.0 0.00 0.00 0.00 24
20260509051406 74 35 0.0 1.0 0.00 0.00 0.00 24
20260509050950 75 279 0.0 1.0 0.00 0.00 0.00 24
20260509050906 75 279 0.0 1.0 0.00 0.00 0.00 24
20260509050407 75 195 0.0 2.0 0.00 0.00 0.00 24
20260509045940 75 224 1.0 3.0 0.00 0.00 0.00 25
20260509045906 75 224 1.0 3.0 0.00 0.00 0.00 25
20260509044942 75 164 1.0 3.0 0.00 0.00 0.00 24
20260509044906 75 164 1.0 3.0 0.00 0.00 0.00 24
20260509044406 75 181 2.0 3.0 0.00 0.00 0.00 24
20260509044005 75 171 1.0 2.0 0.00 0.00 0.00 24
20260509043906 75 171 1.0 2.0 0.00 0.00 0.00 24
20260509043438 75 154 1.0 4.0 0.00 0.00 0.00 24
20260509043406 75 154 1.0 4.0 0.00 0.00 0.00 24
20260509042906 75 138 3.0 4.0 0.00 0.00 0.00 23
20260509042439 75 127 2.0 4.0 0.00 0.00 0.00 23
20260509042407 75 127 2.0 4.0 0.00 0.00 0.00 23
20260509041906 75 127 1.0 3.0 0.00 0.00 0.00 24
20260509041513 75 100 1.0 3.0 0.00 0.00 0.00 23
20260509041407 75 100 1.0 3.0 0.00 0.00 0.00 23
20260509040949 75 81 1.0 2.0 0.00 0.00 0.00 23
20260509040907 75 81 1.0 2.0 0.00 0.00 0.00 23
20260509040516 76 46 0.0 3.0 0.00 0.00 0.00 23
20260509040437 76 46 0.0 3.0 0.00 0.00 0.00 23
20260509040406 76 46 0.0 3.0 0.00 0.00 0.00 23
20260509035906 77 320 0.0 3.0 0.00 0.00 0.00 24
20260509035501 78 283 2.0 5.0 0.00 0.00 0.00 24
20260509035406 78 283 2.0 5.0 0.00 0.00 0.00 24
20260509034906 79 294 2.0 5.0 0.00 0.00 0.00 25
20260509034453 79 285 3.0 5.0 0.00 0.00 0.00 27
20260509034406 79 285 3.0 5.0 0.00 0.00 0.00 27
20260509034014 79 272 3.0 6.0 0.00 0.00 0.00 27
20260509033906 79 272 3.0 6.0 0.00 0.00 0.00 27
20260509033408 79 278 3.0 6.0 0.00 0.00 0.00 28
20260509032938 79 286 3.0 5.0 0.00 0.00 0.00 26
20260509032906 79 286 3.0 5.0 0.00 0.00 0.00 26
20260509032406 80 279 3.0 6.0 0.00 0.00 0.00 27
20260509032012 80 280 3.0 6.0 0.00 0.00 0.00 27
20260509031906 80 280 3.0 6.0 0.00 0.00 0.00 27
20260509031501 80 297 3.0 6.0 0.00 0.00 0.00 26
20260509031408 80 297 3.0 6.0 0.00 0.00 0.00 26
20260509030942 80 285 3.0 6.0 0.00 0.00 0.00 27
20260509030907 80 285 3.0 6.0 0.00 0.00 0.00 27
20260509030510 80 282 3.0 6.0 0.00 0.00 0.00 27
20260509030407 80 282 3.0 6.0 0.00 0.00 0.00 27
20260509025954 81 269 3.0 6.0 0.00 0.00 0.00 28
20260509025906 81 269 3.0 6.0 0.00 0.00 0.00 28
20260509025442 81 273 3.0 6.0 0.00 0.00 0.00 28
20260509025406 81 273 3.0 6.0 0.00 0.00 0.00 28
20260509025001 81 272 3.0 6.0 0.00 0.00 0.00 28
20260509024906 81 272 3.0 6.0 0.00 0.00 0.00 28
20260509024406 81 276 3.0 5.0 0.00 0.00 0.00 28
20260509023947 81 265 3.0 6.0 0.00 0.00 0.00 29
20260509023906 81 265 3.0 6.0 0.00 0.00 0.00 29
20260509023406 81 279 3.0 6.0 0.00 0.00 0.00 27
20260509022942 82 285 3.0 7.0 0.00 0.00 0.00 28
20260509022906 82 285 3.0 7.0 0.00 0.00 0.00 28
20260509022450 82 279 3.0 7.0 0.00 0.00 0.00 28
20260509022406 82 279 3.0 7.0 0.00 0.00 0.00 28
20260509022008 83 283 3.0 6.0 0.00 0.00 0.00 28
20260509021906 83 283 3.0 6.0 0.00 0.00 0.00 28
20260509021406 83 285 3.0 7.0 0.00 0.00 0.00 26
20260509021009 83 294 3.0 7.0 0.00 0.00 0.00 25
20260509020906 83 294 3.0 7.0 0.00 0.00 0.00 25
20260509020406 84 300 4.0 8.0 0.00 0.00 0.00 25
20260509015942 85 298 4.0 8.0 0.00 0.00 0.00 25
20260509015906 85 298 4.0 8.0 0.00 0.00 0.00 25
20260509015546 86 288 4.0 9.0 0.00 0.00 0.00 25
20260509015407 86 288 4.0 9.0 0.00 0.00 0.00 25
20260509014906 87 298 4.0 9.0 0.00 0.00 0.00 26
20260509014442 88 300 5.0 11.0 0.00 0.00 0.00 25
20260509014408 88 300 5.0 11.0 0.00 0.00 0.00 25
20260509014007 89 301 5.0 11.0 0.00 0.00 0.00 26
20260509013906 89 301 5.0 11.0 0.00 0.00 0.00 26
20260509013507 89 303 4.0 11.0 0.00 0.00 0.00 25
20260509013406 89 303 4.0 11.0 0.00 0.00 0.00 25
20260509013007 90 298 5.0 11.0 0.00 0.00 0.00 26
20260509012906 90 298 5.0 11.0 0.00 0.00 0.00 26
20260509012507 90 304 5.0 10.0 0.00 0.00 0.00 25
20260509012407 90 304 5.0 10.0 0.00 0.00 0.00 25
20260509011906 91 302 5.0 10.0 0.00 0.00 0.00 25
20260509011506 91 298 6.0 10.0 0.00 0.00 0.00 25
20260509011408 91 298 6.0 10.0 0.00 0.00 0.00 25
20260509010956 92 303 5.0 11.0 0.00 0.00 0.00 25
20260509010906 92 303 5.0 11.0 0.00 0.00 0.00 25
20260509010406 92 298 5.0 11.0 0.00 0.00 0.00 26
20260509005939 92 300 5.0 11.0 0.00 0.00 0.00 25
20260509005906 92 300 5.0 11.0 0.00 0.00 0.00 25
20260509005406 92 299 6.0 11.0 0.00 0.00 0.00 26
20260509004906 92 273 7.0 14.0 0.00 0.00 0.00 27
20260509004502 93 276 6.0 14.0 0.00 0.00 0.00 26
20260509004407 93 276 6.0 14.0 0.00 0.00 0.00 26
20260509003950 93 301 6.0 11.0 0.00 0.00 0.00 25
20260509003906 93 301 6.0 11.0 0.00 0.00 0.00 25
20260509003408 93 299 6.0 10.0 0.00 0.00 0.00 26
20260509002906 94 286 5.0 12.0 0.00 0.00 0.00 27
20260509002440 94 280 6.0 12.0 0.00 0.00 0.00 27
20260509002407 94 280 6.0 12.0 0.00 0.00 0.00 27
20260509001906 94 299 6.0 15.0 0.00 0.00 0.00 26
20260509001451 94 280 7.0 15.0 0.00 0.00 0.00 27
20260509001407 94 280 7.0 15.0 0.00 0.00 0.00 27
20260509000940 94 276 7.0 13.0 0.00 0.00 0.00 27
20260509000906 94 276 7.0 13.0 0.00 0.00 0.00 27
20260509000437 95 293 7.0 14.0 0.00 0.00 0.00 27
20260509000406 95 293 7.0 14.0 0.00 0.00 0.00 27
20260509000002 95 302 6.0 14.0 0.00 0.00 0.00 28
20260508235906 95 302 6.0 14.0 0.00 0.00 0.00 28
20260508235407 95 297 5.0 14.0 0.00 0.00 0.00 28
20260508234943 95 292 6.0 13.0 0.00 0.00 0.00 28
20260508234906 95 292 6.0 13.0 0.00 0.00 0.00 28
20260508234407 95 276 8.0 13.0 0.00 0.00 0.00 30
20260508233906 96 277 6.0 12.0 0.00 0.00 0.00 29
20260508233406 96 281 7.0 13.0 0.00 0.00 0.00 29
20260508232947 96 276 6.0 15.0 0.00 0.00 0.00 29
20260508232906 96 276 6.0 15.0 0.00 0.00 0.00 29
20260508232449 95 281 6.0 15.0 0.00 0.00 0.00 30
20260508232409 95 281 6.0 15.0 0.00 0.00 0.00 30
20260508231906 95 271 7.0 15.0 0.00 0.00 0.00 31
20260508231406 96 270 8.0 15.0 0.00 0.00 0.00 31
20260508231003 95 275 8.0 14.0 0.00 0.00 0.00 29
20260508230906 95 275 8.0 14.0 0.00 0.00 0.00 29
20260508230458 96 297 7.0 14.0 0.00 0.00 0.00 28
20260508230406 96 297 7.0 14.0 0.00 0.00 0.00 28
20260508225944 96 285 6.0 13.0 0.00 0.00 0.00 29
20260508225906 96 285 6.0 13.0 0.00 0.00 0.00 29
20260508225502 96 300 7.0 13.0 0.00 0.00 0.00 30
20260508225406 96 300 7.0 13.0 0.00 0.00 0.00 30
20260508224906 96 274 8.0 13.0 0.00 0.00 0.00 31
20260508224406 96 281 7.0 13.0 0.00 0.00 0.00 30
20260508223948 96 272 7.0 11.0 0.00 0.00 0.00 32
20260508223906 96 272 7.0 11.0 0.00 0.00 0.00 32
20260508223409 96 275 5.0 13.0 0.00 0.00 0.00 31
20260508222956 95 279 8.0 15.0 0.00 0.00 0.00 32
20260508222909 95 279 8.0 15.0 0.00 0.00 0.00 32